Flag for Germany Weather past 2 weeks in Coesfeld, North Rhine-Westphalia, Germany

Now
79 °F

Warm.


Feels Like: 80 °F
Forecast: 60 / 75 °F
Wind: 7 mph from Southeast

Location: Rheine-Bentlage

Current Time: Sep 18, 2014 at 3:55:10 PM

Latest Report: Sep 18, 2014 at 3:20 PM


Visibility: 4 mi

Pressure: 29.86 "Hg

Humidity: 48%

Dew point: 57 °F

Location of CoesfeldLocation

Historic Weather in Coesfeld — Graph

°F

Coesfeld temperature yesterday

Maximum temperature yesterday: 77 °F (at 3:20 PM)
Minimum temperature yesterday: 55 °F (at 5:20 AM)
Average temperature yesterday: 66 °F

Past Weeks' High & Low Weather Summary

 TemperatureHumidityPressure
High79 °F (Sep 18, 2:20 PM)100% (Sep 5, 10:20 PM)30.27 "Hg (Sep 5, 10:20 PM)
Low45 °F (Sep 12, 6:20 AM)48% (Sep 18, 2:20 PM)29.86 "Hg (Sep 6, 5:20 PM)
Average61 °F83%30.06 "Hg
* Reported Sep 3 2:20 PM — Sep 18 2:20 PM, Coesfeld, Weather by CustomWeather, © 2014

Note: Actual official high and low records may vary slightly from our data, if they occured in-between our weather recording intervals... More about our weather records

Advertising

Coesfeld weather history for previous 24 hours

 ConditionsComfort  
Time TempWeatherWind HumidityBarometerVisibility
2:20 PM
Sep 18
79 °FPassing clouds.5 mph48%29.86 "HgN/A
1:20 PM77 °FPassing clouds.6 mph51%29.86 "HgN/A
12:20 PM75 °FPassing clouds.7 mph57%29.86 "HgN/A
11:20 AM72 °FPassing clouds.6 mph65%29.86 "HgN/A
10:20 AM68 °FPassing clouds.5 mph73%29.89 "HgN/A
9:20 AM63 °FPassing clouds.3 mph83%29.89 "HgN/A
8:20 AM55 °FFog.2 mph100%29.89 "Hg1 mi
8:02 AM55 °FRain. Overcast.1 mph94%29.86 "Hg1 mi
7:20 AM54 °FFog.1 mph100%29.86 "Hg0 mi
6:20 AM55 °FCool.1 mph94%29.86 "Hg0 mi
5:20 AM55 °FCool.1 mph94%29.86 "Hg0 mi
4:20 AM55 °FCool.1 mph100%29.86 "Hg0 mi
3:20 AM57 °FCool.1 mph94%29.89 "Hg0 mi
2:20 AM59 °FCool.2 mph94%29.89 "Hg2 mi
1:20 AM59 °FCool.2 mph94%29.89 "Hg2 mi
12:20 AM61 °FCool.2 mph88%29.89 "Hg3 mi
11:20 PM
Sep 17
63 °FMild.3 mph83%29.89 "Hg3 mi
10:20 PM64 °FMild.3 mph83%29.89 "Hg3 mi
9:20 PM66 °FMild.3 mph78%29.89 "Hg3 mi
8:20 PM68 °FMild.5 mph73%29.89 "Hg3 mi
7:20 PM72 °FMild.6 mph61%29.89 "Hg4 mi
6:20 PM75 °FMild.7 mph57%29.89 "Hg4 mi
5:20 PM77 °FWarm.6 mph51%29.89 "Hg4 mi
4:20 PM75 °FMild.7 mph54%29.89 "Hg4 mi
3:20 PM77 °FPassing clouds.8 mph51%29.89 "HgN/A
Weather by CustomWeather, © 2014

See weather overviewHow to use our weather pages